N9OKI Weather Reports


time (UTC)temp
C
wind
direction
speed
KPH
gust
KPH
rain 1hr
cm
rain 24hr
cm
rain mn
cm
humidity
%
barometer
mb
20260906100006 24 5 0.0 8.0 0.00 0.08 0.00 82 1011.4
20260906094504 24 10 0.0 9.7 0.00 0.08 0.00 81 1011.2
20260906093002 24 346 0.0 3.2 0.00 0.08 0.00 80 1011.1
20260906091609 24 346 1.6 4.8 0.00 0.08 0.00 80 1010.9
20260906090104 25 345 0.0 6.4 0.00 0.08 0.00 80 1010.8
20260906084557 25 22 0.0 3.2 0.00 0.08 0.00 79 1010.9
20260906083056 25 33 0.0 6.4 0.00 0.08 0.00 79 1010.8
20260906081559 25 32 1.6 6.4 0.00 0.08 0.00 79 1010.9
20260906080058 25 29 3.2 8.0 0.00 0.08 0.00 79 1011.0
20260906074553 25 360 1.6 6.4 0.00 0.08 0.00 79 1010.8
20260906073050 25 21 1.6 4.8 0.00 0.25 0.00 79 1010.7
20260906071548 26 22 0.0 4.8 0.00 0.25 0.00 78 1010.7
20260906070047 26 22 3.2 6.4 0.00 0.25 0.00 78 1010.9
20260906064545 26 17 0.0 0.0 0.00 0.25 0.00 78 1011.0
20260906063044 26 17 0.0 3.2 0.00 0.25 0.00 78 1011.0
20260906061544 26 17 0.0 6.4 0.00 0.25 0.00 77 1011.0
20260906054539 26 17 0.0 4.8 0.00 0.25 0.00 77 1011.0
20260906053039 27 17 0.0 4.8 0.00 0.25 0.00 77 1010.9
20260906051536 27 19 1.6 4.8 0.00 0.25 0.00 76 1010.8
20260906050036 27 19 0.0 3.2 0.00 0.25 0.00 75 1010.7
20260906044533 27 19 1.6 4.8 0.00 0.25 0.00 75 1010.8
20260906043037 27 29 1.6 6.4 0.00 0.25 0.00 74 1010.6
20260906041531 27 40 1.6 3.2 0.00 0.25 0.00 74 1010.4
20260906040034 27 325 0.0 0.0 0.00 0.25 0.00 73 1010.3
20260906034529 28 324 0.0 0.0 0.00 0.25 0.00 72 1010.0
20260906033021 28 324 0.0 1.6 0.00 0.25 0.25 71 1010.0
20260906031534 28 324 0.0 1.6 0.00 0.25 0.25 69 1010.1
20260906030020 28 324 0.0 1.6 0.00 0.25 0.25 68 1010.2
20260906024518 29 324 1.6 3.2 0.00 0.25 0.25 68 1010.2
20260906023018 29 324 0.0 3.2 0.00 0.25 0.25 66 1010.2
20260906021521 30 324 0.0 1.6 0.00 0.25 0.25 65 1009.9
20260906020018 30 324 1.6 3.2 0.00 0.25 0.25 64 1009.7
20260906014523 30 324 1.6 3.2 0.00 0.25 0.25 64 1009.7
20260906013017 30 324 1.6 4.8 0.00 0.25 0.25 62 1009.4
20260906011517 31 319 0.0 0.0 0.00 0.25 0.25 59 1009.1
20260906010016 31 319 0.0 0.0 0.00 0.25 0.25 59 1008.9
20260906004515 32 319 0.0 1.6 0.00 0.25 0.25 57 1008.9
20260906003015 32 319 0.0 0.0 0.00 0.25 0.25 55 1009.0
20260906001515 33 319 0.0 1.6 0.00 0.25 0.25 54 1009.3
20260906000014 33 319 0.0 1.6 0.00 0.25 0.25 52 1009.5
20260905234512 34 319 0.0 0.0 0.00 0.25 0.25 49 1009.6
20260905233015 34 319 0.0 1.6 0.00 0.25 0.25 48 1009.6
20260905231512 35 318 0.0 1.6 0.00 0.25 0.25 46 1009.5
20260905230011 35 319 0.0 3.2 0.00 0.25 0.25 45 1009.3
20260905224512 36 319 0.0 6.4 0.00 0.25 0.25 43 1009.2
20260905223010 36 348 1.6 14.5 0.00 0.25 0.25 41 1009.0
20260905221510 36 340 4.8 17.7 0.00 0.25 0.25 39 1009.1
20260905220012 37 309 4.8 11.3 0.00 0.25 0.25 38 1008.9
20260905214507 37 23 4.8 19.3 0.00 0.25 0.25 39 1009.1
20260905213009 37 43 3.2 20.9 0.00 0.25 0.25 38 1009.3
20260905211506 37 355 4.8 16.1 0.00 0.25 0.25 38 1009.1
20260905210004 37 250 6.4 12.9 0.00 0.25 0.25 39 1009.2
20260905204502 37 297 3.2 12.9 0.00 0.25 0.25 38 1009.4
20260905203101 37 320 3.2 12.9 0.00 0.25 0.25 41 1009.6
20260905201557 37 305 3.2 8.0 0.00 0.25 0.25 40 1009.7
20260905200118 37 319 4.8 16.1 0.00 0.25 0.25 40 1009.9
20260905194551 36 160 3.2 11.3 0.00 0.25 0.25 45 1010.1
20260905193049 36 223 1.6 8.0 0.00 0.25 0.25 43 1010.4
20260905191546 36 149 3.2 12.9 0.00 0.25 0.25 42 1010.7
20260905190047 35 163 1.6 11.3 0.00 0.25 0.25 44 1010.9
20260905184540 35 105 3.2 12.9 0.00 0.25 0.25 43 1011.1
20260905183036 35 184 6.4 9.7 0.00 0.25 0.25 45 1011.2
20260905181536 35 121 3.2 9.7 0.00 0.25 0.25 42 1011.6
20260905180048 35 161 3.2 9.7 0.00 0.25 0.25 45 1011.6
20260905174533 34 171 3.2 12.9 0.00 0.25 0.25 45 1011.9
20260905173031 34 161 3.2 14.5 0.00 0.25 0.25 46 1011.9
20260905171545 33 209 6.4 9.7 0.00 0.25 0.25 46 1012.0
20260905170024 33 170 4.8 12.9 0.00 0.25 0.25 50 1012.2
20260905164521 32 153 4.8 12.9 0.00 0.25 0.25 49 1012.4
20260905163018 32 160 8.0 16.1 0.00 0.25 0.25 53 1012.9
20260905161523 32 151 1.6 9.7 0.00 0.25 0.25 55 1013.0
20260905160011 31 263 3.2 9.7 0.00 0.25 0.25 56 1012.8
20260905154508 31 117 3.2 11.3 0.00 0.25 0.25 56 1012.9
20260905153004 30 80 3.2 12.9 0.00 0.25 0.25 57 1013.2
20260905151601 30 138 4.8 8.0 0.00 0.25 0.25 57 1013.3
20260905150055 29 136 3.2 11.3 0.00 0.25 0.25 59 1013.1
20260905144552 28 133 6.4 12.9 0.00 0.25 0.25 61 1013.4
20260905143048 28 167 6.4 11.3 0.00 0.25 0.25 63 1013.6
20260905141545 28 163 4.8 16.1 0.00 0.25 0.25 66 1013.6
20260905140040 27 131 4.8 14.5 0.05 0.25 0.25 70 1013.8
20260905134537 26 132 0.0 4.8 0.05 0.25 0.25 79 1013.8
20260905133036 25 104 1.6 16.1 0.05 0.25 0.25 79 1014.2
20260905131531 25 19 3.2 8.0 0.05 0.25 0.25 81 1014.2
20260905130028 25 32 4.8 12.9 0.00 0.20 0.20 85 1014.6
20260905124527 25 360 3.2 12.9 0.00 0.20 0.20 87 1014.0
20260905123024 25 202 1.6 3.2 0.00 0.20 0.20 87 1013.3
20260905121521 24 135 0.0 0.0 0.00 0.20 0.20 87 1012.9
20260905120033 24 136 0.0 0.0 0.00 0.20 0.20 87 1012.8
20260905114514 24 136 0.0 1.6 0.00 0.20 0.20 87 1012.8
20260905113014 24 134 0.0 4.8 0.00 0.20 0.20 87 1012.5
20260905111510 24 128 1.6 4.8 0.00 0.20 0.20 87 1012.6
20260905110017 24 128 1.6 9.7 0.00 0.20 0.20 87 1012.1
20260905104509 24 30 3.2 9.7 0.00 0.20 0.20 86 1011.8
20260905103016 24 314 0.0 0.0 0.03 0.20 0.20 86 1011.3
20260905101506 25 314 0.0 0.0 0.03 0.20 0.20 86 1011.4